This demonstration page uses our WeatherBlox Daily Observations layout. Learn more.

Left ArrowRight Arrow

Hourly Observations for December 19, 2020

Temp ( °F °C ) Dew Point ( °F °C ) Humidity (%) Winds ( mph kmh ) Pressure ( in mb ) Visibility ( mi km ) Precip ( " mm )
12:56 am 00:56 Clear 26 -3.3 23 -5 88 88 W 7 11 30.20 1023 10 16 0.00 0.00
1:56 am 01:56 Clear 24 -4.4 21 -6.1 88 88 NW 9 15 30.19 1022 10 16 0.00 0.00
2:56 am 02:56 Clear 22 -5.6 19 -7.2 89 89 NW 8 13 30.19 1023 10 16 0.00 0.00
3:56 am 03:56 Clear 19 -7.2 17 -8.3 92 92 WNW 6 9 30.20 1023 10 16 0.00 0.00
4:56 am 04:56 Clear 18 -7.8 16 -8.9 92 92 NW 7 11 30.20 1023 10 16 0.00 0.00
5:56 am 05:56 Clear 16 -8.9 14 -10 92 92 WNW 3 6 30.19 1022 10 16 0.00 0.00
6:56 am 06:56 Clear 15 -9.4 13 -10.6 91 91 Calm 30.19 1023 10 16 0.00 0.00
7:56 am 07:56 Sunny 18 -7.8 16 -8.9 92 92 WSW 9 15 30.19 1022 10 16 0.00 0.00
8:56 am 08:56 Sunny 21 -6.1 19 -7.2 92 92 WSW 7 11 30.19 1022 10 16 0.00 0.00
9:56 am 09:56 Sunny 27 -2.8 21 -6.1 78 78 SW 10 17 30.17 1022 10 16 0.00 0.00
10:56 am 10:56 Sunny 31 -0.6 23 -5 72 72 SSW 6 9 30.15 1021 10 16 0.00 0.00
11:56 am 11:56 Sunny 34 1.1 24 -4.4 67 67 SW 10 17 30.12 1020 10 16 0.00 0.00
12:56 pm 12:56 Sunny 35 1.7 26 -3.3 70 70 SSW 12 19 30.09 1019 10 16 0.00 0.00
1:56 pm 13:56 Sunny 36 2.2 27 -2.8 70 70 SSW 15 24 30.04 1017 10 16 0.00 0.00
2:56 pm 14:56 Sunny 38 3.3 29 -1.7 70 70 SSW 13 20 30.02 1017 10 16 0.00 0.00
3:56 pm 15:56 Sunny 38 3.3 30 -1.1 73 73 SSW 13 20 29.99 1016 10 16 0.00 0.00
4:56 pm 16:56 Sunny 38 3.3 30 -1.1 73 73 SSW 10 17 29.99 1016 10 16 0.00 0.00
5:56 pm 17:56 Clear 38 3.3 30 -1.1 73 73 SSW 10 17 29.97 1015 10 16 0.00 0.00
6:56 pm 18:56 Clear 39 3.9 29 -1.7 67 67 SW 14 22 29.96 1015 10 16 0.00 0.00
7:56 pm 19:56 Clear 38 3.3 30 -1.1 73 73 SW 14 22 29.96 1015 10 16 0.00 0.00
8:56 pm 20:56 Clear 39 3.9 29 -1.7 67 67 W 14 22 29.96 1015 10 16 0.00 0.00
9:56 pm 21:56 Clear 37 2.8 28 -2.2 70 70 WNW 12 19 29.96 1015 10 16 0.00 0.00
10:56 pm 22:56 Mostly Cloudy 35 1.7 28 -2.2 76 76 NW 8 13 29.97 1015 10 16 0.00 0.00
11:56 pm 23:56 Mostly Cloudy 38 3.3 27 -2.8 65 65 NW 12 19 29.99 1016 10 16 0.00 0.00

Powered by AerisWeather